This is the latest recevied weather packets stored in our database for station/object VE3VGJ. If no packets are shown the sender has not sent any weather packets the latest 10 day(s).
| Time | Temp. | Humidity | Pressure | Rain* | Wind** | Luminosity | Snow |
|---|---|---|---|---|---|---|---|
| 1778095440 | 7.22° C | 83% | 1010.4 hPa | 0 mm | - | 180 W/m² | - |
| 1778095137 | 7.22° C | 84% | 1010.6 hPa | 0 mm | - | 183 W/m² | - |
| 1778094833 | 7.22° C | 84% | 1010.7 hPa | 0 mm | - | 171 W/m² | - |
| 1778094530 | 7.22° C | 84% | 1010.5 hPa | 0 mm | - | 164 W/m² | - |
| 1778094226 | 7.22° C | 86% | 1010.4 hPa | 0 mm | - | 144 W/m² | - |
| 1778093923 | 7.22° C | 85% | 1010.7 hPa | 0 mm | - | 132 W/m² | - |
| 1778093620 | 7.22° C | 85% | 1010.4 hPa | 0 mm | - | 147 W/m² | - |
| 1778093317 | 7.22° C | 87% | 1010.4 hPa | 0 mm | - | 162 W/m² | - |
| 1778093014 | 7.22° C | 86% | 1010.5 hPa | 0 mm | - | 162 W/m² | - |
| 1778092712 | 7.22° C | 85% | 1010.7 hPa | 0 mm | - | 181 W/m² | - |
| 1778092407 | 7.22° C | 84% | 1010.4 hPa | 0 mm | - | 174 W/m² | - |
| 1778092105 | 7.22° C | 84% | 1010.5 hPa | 0 mm | - | 141 W/m² | - |
| 1778091801 | 7.22° C | 82% | 1010.2 hPa | 0 mm | - | 131 W/m² | - |
| 1778091499 | 7.22° C | 83% | 1010.1 hPa | 0 mm | - | 164 W/m² | - |
| 1778091197 | 7.22° C | 83% | 1010.3 hPa | 0 mm | - | 150 W/m² | - |
| 1778090894 | 7.22° C | 84% | 1010.1 hPa | 0 mm | - | 185 W/m² | - |
| 1778090589 | 7.22° C | 84% | 1010.3 hPa | 0 mm | - | 212 W/m² | - |
| 1778090286 | 7.22° C | 85% | 1010.2 hPa | 0 mm | - | 264 W/m² | - |
| 1778089983 | 7.22° C | 86% | 1010.1 hPa | 0 mm | - | 283 W/m² | - |
| 1778089681 | 6.67° C | 84% | 1009.9 hPa | 0 mm | - | 249 W/m² | - |
| 1778089378 | 7.22° C | 84% | 1010.4 hPa | 0 mm | - | 307 W/m² | - |
| 1778089075 | 7.22° C | 84% | 1010.3 hPa | 0 mm | - | 244 W/m² | - |
| 1778088772 | 7.22° C | 86% | 1010.2 hPa | 0 mm | - | 260 W/m² | - |
| 1778088469 | 7.22° C | 87% | 1010.3 hPa | 0 mm | - | 309 W/m² | - |
| 1778088165 | 6.67° C | 88% | 1010.2 hPa | 0 mm | - | 235 W/m² | - |
* Rain latest hour (hover to see other rain measurements)
** Current wind speed in m/s (hover to see current wind gust speed)